BEIDOU-3 M28 (C50)

Last updated on Tue Aug 25 2026 00:03:26 GMT+0000 (Coordinated Universal Time)

1 58654U 23207A 26234.88208252 -.00000023 00000+0 00000+0 0 9998 2 58654 55.8149 60.0553 0001284 32.5505 327.5149 1.86229865 18081
UTC large
Height (km)
Speed (km/s)
/
Latitude / Longitude
Inclination (degrees)
Orbital Period (minutes)
Azimuth
Elevation
Range (km)
Doppler Factor

Next 0 passes for location: London (51.5072 / 0.1276)

No passes found over London.
BEIDOU-3 M28 (C50)